Weather History for KCEZ - October, 2014

Change the Weather History Date:

Tuesday, October 7, 2014

  Actual Average Record
Temperature  
Mean Temperature 56 °F 52 °F  
Max Temperature 76 °F 70 °F 78 °F (1996)
Min Temperature 35 °F 34 °F 24 °F (2007)
Degree Days  
Heating Degree Days 9 13  
Month to date heating degree days 81 84  
Since 1 July heating degree days 160 256  
Cooling Degree Days 0 0  
Month to date cooling degree days 0 0  
Year to date cooling degree days 537 426  
Growing Degree Days 4 (Base 50)    
Moisture  
Dew Point 32 °F    
Average Humidity 49    
Maximum Humidity 82    
Minimum Humidity 16    
Precipitation  
Precipitation 0.00 in 0.04 in 0.06 in (2001)
Month to date precipitation T 0.38  
Year to date precipitation 7.60 10.60  
Sea Level Pressure  
Sea Level Pressure 30.04 in    
Wind  
Wind Speed 5 mph (NE)    
Max Wind Speed 10 mph    
Max Gust Speed 14 mph    
Visibility 10 miles    
Events      
T = Trace of Precipitation, MM = Missing Value Source: NWS Daily Summary

Daily Weather History Graph

Daily Weather History Graph

Search for Another Location

Airport or City:

Trip Planner

Search our weather history database for the weather conditions in past years. The results will help you decide how hot, cold, wet, or windy it might be!

Date:

Astronomy

Oct. 07, 2014 Rise Set
Actual Time 7:15 AM MDT 6:48 PM MDT
Civil Twilight 6:49 AM MDT 7:14 PM MDT
Nautical Twilight 6:18 AM MDT 7:44 PM MDT
Astronomical Twilight 5:48 AM MDT 8:15 PM MDT
Moon 6:25 PM MDT (10/7) 6:16 AM MDT (10/7)
Length of Visible Light 12h 25m
Length of Day
11h 33m
Waxing Gibbous, 99% of the Moon is Illuminated
Oct 7
Waxing Gibbous
Oct 8
Full
Oct 15
Last Quarter
Oct 23
New
Oct 30
First Quarter

Hourly Weather History & Observations

Time (MDT) Temp. Windchill Dew Point Humidity Pressure Visibility Wind Dir Wind Speed Gust Speed Precip Events Conditions
12:53 AM 41.0 °F 37.1 °F 32.0 °F 70% 30.03 in 10.0 mi NE 5.8 mph - N/A   Clear
1:53 AM 39.9 °F 36.7 °F 30.9 °F 70% 30.03 in 10.0 mi ENE 4.6 mph - N/A   Clear
2:53 AM 37.9 °F 33.5 °F 30.9 °F 76% 30.03 in 10.0 mi NE 5.8 mph - N/A   Clear
3:53 AM 37.9 °F 35.5 °F 32.0 °F 79% 30.02 in 10.0 mi East 3.5 mph - N/A   Clear
4:53 AM 37.9 °F 34.4 °F 30.9 °F 76% 30.04 in 10.0 mi East 4.6 mph - N/A   Clear
5:53 AM 36.0 °F 32.1 °F 30.0 °F 79% 30.05 in 10.0 mi ENE 4.6 mph - N/A   Clear
6:53 AM 36.0 °F 31.1 °F 30.0 °F 79% 30.09 in 10.0 mi NE 5.8 mph - N/A   Clear
7:53 AM 37.0 °F 32.4 °F 30.9 °F 79% 30.12 in 10.0 mi ENE 5.8 mph - N/A   Clear
8:53 AM 46.9 °F - 34.0 °F 61% 30.11 in 10.0 mi ENE 5.8 mph - N/A   Clear
9:53 AM 57.0 °F - 32.0 °F 39% 30.09 in 10.0 mi Variable 3.5 mph - N/A   Clear
10:53 AM 64.9 °F - 30.0 °F 27% 30.08 in 10.0 mi Calm Calm - N/A   Clear
11:53 AM 68.0 °F - 30.0 °F 24% 30.06 in 10.0 mi Calm Calm - N/A   Clear
12:53 PM 71.1 °F - 32.0 °F 24% 30.04 in 10.0 mi SSE 4.6 mph - N/A   Clear
1:53 PM 73.0 °F - 28.0 °F 19% 30.01 in 10.0 mi WNW 5.8 mph - N/A   Clear
2:53 PM 73.9 °F - 24.1 °F 16% 30.00 in 10.0 mi West 6.9 mph - N/A   Clear
3:53 PM 73.0 °F - 25.0 °F 17% 29.99 in 10.0 mi NW 6.9 mph - N/A   Clear
4:53 PM 71.1 °F - 28.9 °F 21% 29.99 in 10.0 mi West 6.9 mph - N/A   Clear
5:53 PM 68.0 °F - 28.9 °F 23% 30.01 in 10.0 mi West 3.5 mph - N/A   Clear
6:53 PM 62.1 °F - 33.1 °F 34% 30.03 in 10.0 mi Calm Calm - N/A   Clear
7:53 PM 55.0 °F - 37.0 °F 51% 30.06 in 10.0 mi ENE 8.1 mph - N/A   Clear
8:53 PM 52.0 °F - 36.0 °F 54% 30.04 in 10.0 mi NE 9.2 mph - N/A   Clear
9:53 PM 52.0 °F - 36.0 °F 54% 30.02 in 10.0 mi East 5.8 mph - N/A   Clear
10:53 PM 48.9 °F - 37.0 °F 64% 30.00 in 10.0 mi ENE 6.9 mph - N/A   Clear
11:53 PM 48.0 °F - 37.9 °F 68% 30.00 in 10.0 mi ESE 5.8 mph - N/A   Clear